Theta_e
356 354 354 349 348 349 347 348 346 350 348 346 345 345 341 341 341 340 337 352 349 348 350 352 352 354 355 354 356 357 356 354 353 352 350 350 350 350 350 350 350 350 349
362 360 360 359 358 358 352 349 351 353 353 354 353 354 352 351 350 349 346 343 348 346 349 351 352 353 355 357 355 356 356 354 354 352 351 350 349 350 350 350 350 350 349
365 363 361 358 358 358 359 358 356 355 353 351 350 349 348 348 348 351 352 349 348 347 347 349 350 352 353 356 358 357 356 354 354 352 351 350 349 349 349 350 350 350 349
361 365 360 359 357 357 356 356 356 354 352 351 349 349 352 352 350 350 348 347 345 346 348 347 349 350 352 354 356 358 357 354 353 351 351 350 350 348 349 349 350 349 349
362 361 360 357 359 357 346 354 356 356 351 351 348 347 350 350 350 348 347 350 350 346 344 349 346 347 350 352 356 358 359 356 352 351 351 350 350 350 348 349 349 349 348
360 361 357 359 354 357 354 355 355 354 354 349 345 342 346 345 344 344 344 347 349 348 347 348 346 343 348 351 354 357 359 359 355 352 350 349 349 350 349 349 348 348 348
358 361 356 358 358 355 356 356 354 353 349 350 346 341 342 342 340 345 346 344 344 346 346 347 352 348 346 348 348 353 357 359 359 356 350 347 348 349 349 349 348 347 347
359 360 359 358 358 350 355 355 350 347 344 344 337 333 327 332 338 338 335 335 341 340 336 341 333 348 349 348 346 348 353 355 357 357 352 347 347 348 349 349 348 348 346
356 360 356 351 354 355 346 353 349 345 339 339 340 332 323 323 327 330 332 334 335 338 342 342 339 336 342 348 349 349 349 350 353 356 355 350 350 349 349 349 348 348 347
357 356 356 356 351 347 342 348 344 342 340 332 334 336 336 331 323 322 330 332 332 333 340 337 330 332 342 343 346 349 346 346 350 351 351 350 352 352 351 349 348 347 347
358 354 352 347 347 345 344 340 339 338 337 335 331 331 331 328 325 328 319 321 326 326 327 328 340 344 342 342 342 341 341 341 342 344 346 348 350 351 351 350 349 348 348
349 346 343 346 347 343 340 339 338 339 338 337 335 331 326 322 322 321 319 319 320 324 326 329 331 332 337 339 343 337 336 333 334 335 337 339 343 345 348 348 348 350 351
340 340 345 344 344 343 342 339 339 336 338 335 335 332 329 324 324 322 319 316 316 318 320 324 330 328 330 329 331 335 337 330 328 327 328 330 334 337 340 342 344 347 351
337 342 343 345 343 342 339 339 336 336 335 334 332 332 328 326 324 321 319 315 311 313 315 317 323 328 327 329 336 336 336 332 330 328 326 325 327 330 332 334 337 341 344
341 341 341 341 342 339 340 339 335 335 334 335 333 334 331 327 326 324 323 321 314 308 310 315 316 322 329 330 330 330 330 334 331 328 326 325 325 326 327 328 330 333 336
341 342 342 341 339 339 338 338 334 334 333 332 330 329 330 328 326 326 323 322 321 316 310 316 317 322 328 328 327 325 325 329 328 327 325 324 323 323 324 325 326 329 331
338 336 336 336 337 338 337 337 335 332 330 332 330 327 327 329 328 323 323 322 320 319 314 316 319 321 323 321 321 324 327 329 329 326 325 324 322 320 321 322 322 325 327
332 331 332 331 331 331 333 334 331 330 330 329 328 328 327 327 326 325 325 322 321 320 317 313 317 319 319 325 319 319 319 324 323 324 325 324 321 319 319 318 318 320 321
327 327 326 325 324 325 326 327 328 329 328 328 328 327 326 326 324 324 325 323 323 323 322 319 317 320 319 318 316 319 320 322 326 329 324 323 321 319 319 317 316 316 317
323 323 323 322 322 322 322 322 322 323 323 324 327 327 326 325 324 324 323 322 322 321 319 318 317 317 317 318 318 314 314 319 319 327 327 325 324 322 319 317 317 317 315
320 319 318 318 318 318 317 317 318 317 317 317 319 320 322 323 321 321 323 321 321 319 318 317 316 316 316 313 312 314 313 314 315 320 323 327 327 330 332 318 321 319 315
318 318 316 315 314 315 307 307 309 312 313 313 312 314 315 316 315 312 312 314 316 318 316 315 315 314 313 315 316 312 312 309 306 316 320 319 325 325 331 335 320 318 312
317 315 314 313 312 313 305 302 303 308 309 310 311 312 312 314 313 314 313 310 310 309 310 315 315 314 314 315 314 313 311 310 308 314 316 313 321 322 328 321 310 313 311
312 311 312 312 311 310 300 297 298 304 306 307 307 307 308 308 309 309 310 311 313 314 315 316 314 314 316 317 316 315 313 313 313 313 315 312 317 320 324 314 306 308 308
306 306 306 306 306 305 299 297 297 299 299 300 302 303 303 304 302 299 303 304 306 309 311 308 306 307 305 304 309 315 311 310 307 307 311 315 317 318 322 320 311 305 303
301 301 299 298 297 298 297 295 295 297 296 297 299 301 301 300 298 297 301 302 304 307 311 313 314 307 304 309 304 313 312 308 308 305 310 314 315 316 315 323 315 313 307
Wind_Speed
5 5 4 5 8 8 9 8 7 6 8 7 5 6 6 7 6 3 2 11 12 13 14 15 15 15 14 16 16 17 17 17 16 15 14 14 14 14 14 13 13 12 12
5 4 5 4 4 4 7 8 6 4 5 4 6 6 6 6 5 5 4 5 14 14 15 16 16 17 17 17 17 17 18 18 18 16 16 16 16 16 15 15 14 14 14
5 5 4 5 5 5 5 2 3 2 2 3 6 7 6 7 6 7 7 6 8 15 16 17 18 18 18 17 17 17 19 18 18 18 21 19 19 18 17 17 16 16 15
8 4 4 4 5 4 4 6 5 5 5 5 5 5 6 5 7 7 7 6 6 6 10 19 18 19 17 18 18 18 19 20 19 20 16 19 20 20 19 19 18 18 16
9 5 4 5 4 3 5 8 2 1 2 3 4 5 3 4 5 7 7 7 6 5 5 8 20 17 14 16 18 19 19 19 18 18 17 17 18 18 19 20 19 19 18
7 7 6 5 3 4 6 3 2 0 2 3 5 7 5 6 6 6 8 7 6 7 8 9 8 9 14 17 18 18 18 19 17 17 17 16 17 17 18 19 20 19 19
8 6 5 6 5 5 4 3 3 2 2 3 3 4 5 4 7 7 6 7 9 11 11 12 3 3 5 14 17 18 18 19 19 17 16 15 17 17 18 19 20 20 20
9 7 6 6 8 5 5 2 3 2 3 3 2 2 4 5 4 6 8 6 7 3 7 14 16 7 3 5 8 16 17 18 18 16 15 15 17 17 17 19 20 21 21
11 7 9 7 7 2 4 4 4 4 3 3 3 2 3 2 5 6 7 4 4 2 5 6 8 4 16 5 4 9 15 15 17 16 15 14 18 18 19 18 19 20 21
9 8 8 9 3 3 1 3 4 2 2 3 3 3 4 4 4 10 7 4 3 4 4 4 7 8 9 5 14 9 10 14 14 13 14 15 14 17 18 19 19 18 20
6 9 6 5 4 2 3 3 3 2 2 2 2 3 3 3 3 3 9 9 4 4 4 5 4 3 5 4 7 14 10 12 12 12 11 9 11 13 15 17 19 17 19
4 6 6 4 5 4 3 4 4 4 3 2 2 2 3 3 3 3 4 8 7 5 3 5 4 4 3 2 8 10 6 7 9 9 9 9 10 12 13 13 14 17 20
4 5 5 5 4 4 4 5 5 4 4 4 4 4 3 3 3 3 3 5 5 4 3 4 4 3 3 4 3 8 3 6 10 12 9 9 11 12 12 13 15 16 20
7 9 7 6 6 6 5 4 3 4 5 5 7 5 4 4 3 3 3 3 5 4 3 6 3 4 4 3 3 7 2 1 7 5 11 14 11 12 13 15 16 17 16
1 11 10 8 7 6 6 7 5 5 6 6 6 6 5 5 5 5 4 3 3 6 5 5 3 5 3 5 5 5 4 7 9 11 14 16 14 13 13 14 15 17 15
6 2 5 6 6 6 7 7 6 6 7 6 5 7 6 6 7 6 4 4 4 4 7 4 4 3 3 3 6 7 8 11 8 13 15 16 14 15 14 14 14 17 15
6 6 5 5 5 7 8 7 8 9 9 8 10 9 8 7 7 7 6 6 6 5 8 5 3 3 3 6 7 6 7 6 5 12 11 12 14 13 12 13 15 15 15
6 7 7 7 8 8 7 9 13 11 12 12 12 11 12 10 12 11 10 11 10 8 9 14 6 5 6 5 4 6 8 9 9 12 11 12 10 12 12 13 14 14 14
6 7 8 8 9 9 9 9 10 10 15 15 15 14 15 14 15 12 9 11 9 9 9 9 9 5 3 2 4 7 6 9 7 13 15 12 10 9 10 13 14 12 12
7 7 8 9 10 10 11 11 11 11 11 12 11 15 18 18 16 15 13 15 12 12 12 12 12 11 7 7 6 2 2 2 6 9 8 7 7 10 10 11 11 12 12
8 9 10 10 10 10 9 10 8 9 9 11 11 11 11 10 15 17 12 14 14 12 11 12 11 10 9 4 4 3 3 0 3 3 8 5 5 4 5 7 10 13 11
8 8 9 10 10 9 11 12 8 9 11 12 12 12 12 14 15 13 11 16 14 14 15 12 11 11 7 3 2 3 1 1 3 3 5 9 6 6 5 4 6 9 10
7 8 10 11 12 12 10 7 7 8 9 10 11 11 12 11 12 13 14 14 14 17 18 15 17 15 14 10 4 5 3 2 3 5 6 10 5 9 1 2 6 4 9
9 9 10 10 11 9 7 7 8 8 9 10 11 12 13 14 14 14 16 15 14 13 11 9 11 13 13 10 9 7 5 3 3 5 3 8 4 7 2 3 8 6 5
10 10 11 13 13 12 10 13 12 10 11 12 12 13 13 13 14 13 15 17 17 15 14 17 16 14 13 13 12 8 6 5 5 7 3 4 4 5 3 2 3 8 9
12 11 12 12 16 16 18 19 16 9 11 11 13 15 18 17 17 18 16 16 14 14 12 12 10 6 10 12 16 12 8 8 7 6 7 5 4 2 2 2 4 3 5
Wind_Direction
223 188 216 220 181 199 196 212 207 192 200 209 233 249 248 249 264 280 295 191 202 202 207 208 213 232 231 230 222 224 217 211 210 212 215 215 216 220 221 214 221 206 205
222 194 204 251 247 241 201 201 204 200 201 221 239 237 239 235 244 259 256 247 220 216 213 214 213 222 231 229 225 228 225 215 208 206 210 213 214 216 223 222 218 217 209
238 201 229 203 233 243 264 319 357 334 308 261 252 247 246 246 249 244 230 234 244 218 223 223 219 222 223 224 234 229 225 221 225 214 200 209 209 209 213 221 222 221 216
204 252 225 253 228 234 208 192 192 206 226 220 232 239 248 224 232 233 231 240 248 251 224 232 223 225 222 221 225 231 224 219 219 222 223 213 207 206 206 213 219 224 220
182 185 246 250 241 70 75 269 226 174 352 313 284 271 301 312 295 279 267 258 245 243 244 248 221 223 226 230 228 230 227 224 226 224 223 223 225 217 206 207 214 222 223
175 173 241 261 234 244 214 254 219 5 22 307 309 309 308 286 275 265 265 268 264 244 238 226 193 205 214 227 232 230 228 228 226 232 230 224 225 226 220 213 210 218 224
183 173 202 245 216 269 274 10 27 332 269 251 291 295 285 323 306 281 300 296 308 272 356 329 228 213 201 226 230 231 228 230 226 226 231 231 232 227 225 220 215 212 220
181 173 208 236 208 202 241 241 75 353 322 322 266 298 296 305 311 336 325 342 47 323 3 299 290 337 279 215 204 227 229 237 238 233 225 221 232 233 231 229 222 216 213
169 168 209 237 232 166 147 172 164 195 243 306 316 189 310 275 328 300 303 346 348 317 220 164 198 347 297 320 251 206 219 229 246 240 238 228 230 231 234 231 231 224 219
167 181 217 226 180 121 239 192 146 178 192 258 295 260 242 244 280 300 296 284 296 285 245 237 194 226 259 25 309 248 204 210 223 238 243 243 237 235 237 234 232 226 227
181 202 209 198 149 134 234 134 119 187 237 255 280 303 331 330 324 270 298 316 336 293 282 276 280 232 224 217 213 264 239 194 205 214 231 250 256 263 259 243 232 219 222
145 192 181 185 161 184 222 166 186 201 211 269 303 302 267 254 274 289 302 303 307 307 317 298 299 316 318 286 277 346 334 281 235 205 225 239 246 248 258 265 261 241 228
169 193 176 172 178 187 209 187 198 206 208 208 218 239 272 280 274 281 296 293 300 314 321 307 301 331 329 337 7 70 23 358 338 314 264 249 249 255 252 254 259 248 231
182 170 179 175 203 189 205 224 208 208 203 213 225 230 245 264 276 260 240 286 300 308 325 285 313 320 304 315 73 27 321 65 259 307 310 271 250 257 261 261 251 251 234
134 162 173 187 189 202 208 199 212 221 214 221 221 221 222 242 253 264 256 237 242 285 282 298 284 297 340 352 328 347 313 246 233 242 246 252 248 242 243 249 253 249 234
2 50 189 195 198 206 209 215 221 219 223 230 221 226 225 236 238 245 256 248 239 245 275 261 273 269 10 355 314 322 304 304 252 239 252 257 262 254 239 246 240 247 241
350 327 309 286 249 224 223 221 223 228 234 226 228 237 240 238 245 250 253 258 262 254 261 267 286 285 291 292 298 294 286 285 285 276 271 275 277 263 243 241 241 236 231
335 321 311 297 283 273 266 236 239 249 244 244 244 246 245 245 242 246 256 259 261 272 278 276 263 266 260 224 256 275 278 273 268 276 278 261 266 244 241 247 243 232 230
301 297 292 291 289 288 287 285 280 264 239 243 249 246 252 253 256 255 254 264 265 266 261 259 266 246 241 281 289 270 274 270 272 260 261 258 270 250 239 240 241 233 228
284 288 288 286 286 286 285 284 284 283 283 281 271 257 254 253 255 255 250 252 255 258 262 267 272 273 268 260 235 168 315 1 339 317 308 289 279 248 244 245 242 224 217
273 275 278 279 280 280 278 279 294 305 309 306 305 299 288 276 263 255 252 254 250 251 255 256 260 258 253 250 226 223 161 190 313 310 307 305 286 274 252 230 245 224 209
269 274 278 283 285 286 301 307 303 299 293 286 285 286 289 293 294 286 256 250 251 256 250 250 256 253 246 240 233 230 222 23 326 317 4 313 314 295 267 261 284 222 180
305 298 292 287 282 280 285 9 6 325 314 306 299 294 290 287 307 304 299 285 258 248 246 254 255 249 252 248 247 263 227 210 240 295 318 295 308 301 296 86 1 141 154
302 301 309 315 315 315 32 67 2 306 303 294 285 285 284 282 277 277 280 282 284 280 277 258 242 248 252 248 228 227 206 204 243 264 253 263 282 287 92 72 31 56 115
322 316 314 310 305 300 328 323 321 309 296 287 286 287 285 286 287 291 288 282 274 269 267 259 254 248 224 228 230 232 216 211 234 258 236 247 268 283 157 144 78 76 64
314 313 309 303 291 285 284 290 288 283 279 277 276 273 270 263 266 268 267 263 265 262 269 280 266 245 237 227 215 217 206 211 221 259 257 239 256 215 202 175 142 174 94